Regional Weather Roundup
Issued by NWS

Home | Current Version | Previous Version | Text Only | Print | Product List | Glossary On
Versions: 1 2 3 4 5 6 7 8 9 10 11 12 13 14 15 16 17 18 19 20 21 22 23 24 25 26 27 28 29 30 31 32 33 34 35 36 37 38 39 40 41 42 43 44 45 46 47 48 49 50
000
ASUS43 KLSX 281659
RWRMO

WEATHER SUMMARY FOR MISSOURI
NATIONAL WEATHER SERVICE SPRINGFIELD MO
1200 PM CDT SUN MAY 28 2017

NOTE: "FAIR" INDICATES FEW OR NO CLOUDS BELOW 12,000 FEET WITH NO
       SIGNIFICANT WEATHER AND/OR OBSTRUCTIONS TO VISIBILITY.
       CURRENT SKY AND/OR WEATHER CONDITIONS ARE NOT AVAILABLE FOR
       CHILLICOTHE AND FARMINGTON.

MOZ001>031-035>038-043-044-053-054-281800-
...NORTHERN AND WESTERN MISSOURI...

CITY           SKY/WX    TMP DP  RH WIND       PRES   REMARKS
KANSAS CTY INT SUNNY     76  56  49 W13       29.95R
KANSAS C DTWN  SUNNY     77  55  46 NW8       29.94R
LEE`S SUMMIT   SUNNY     74  55  51 W6        29.96R
ST JOSEPH      SUNNY     77  56  48 W13       29.93S
CHILLICOTHE      N/A     76  55  48 VRB6      29.91S
KIRKSVILLE     SUNNY     75  54  47 W12G18    29.89R

$$
MOZ066>068-077>081-088>096-101>105-281800-
...SOUTHWEST MISSOURI...

CITY           SKY/WX    TMP DP  RH WIND       PRES   REMARKS
SPRINGFIELD    MOSUNNY   72  61  68 NW13      29.97S
JOPLIN         SUNNY     75  61  61 NW6       30.01R
BRANSON        PTSUNNY   72  64  78 NW6       29.97R

$$
MOZ032>034-039>042-045>050-055>058-069>072-281800-
...CENTRAL MISSOURI...

CITY           SKY/WX    TMP DP  RH WIND       PRES   REMARKS
COLUMBIA       MOSUNNY   74  62  66 W10       29.91R
JEFFERSON CITY SUNNY     74  60  61 NW12      29.90F
ROLLA          CLOUDY    64  32  30 W10       29.91S FOG
SEDALIA        SUNNY     74  62  66 NW8       29.96R
WARRENSBURG    SUNNY     72  55  56 NW7       29.95S
OSAGE BEACH    PTSUNNY   72  63  73 W9        29.94S

$$
MOZ051-052-059>065-281800-
...EAST CENTRAL MISSOURI...

CITY           SKY/WX    TMP DP  RH WIND       PRES   REMARKS
ST LOUIS INTL  CLOUDY    68  63  84 W10       29.87R HAZE
SPIRIT OF STL  CLOUDY    66  64  93 SW12      29.87R
ST CHARLES     CLOUDY    71  64  78 W10       29.85R

$$
MOZ072>076-082>087-097>100-106>115-281800-
...SOUTH CENTRAL AND SOUTHEAST MISSOURI...

CITY           SKY/WX    TMP DP  RH WIND       PRES   REMARKS
CAPE GIRARDEAU CLOUDY    70  63  78 W17       29.87R
FARMINGTON     CLOUDY    73  65  75 W9        29.88S
POPLAR BLUFF     N/A     70  64  81 W10G18    29.89
WEST PLAINS    CLOUDY    68  64  87 W10       29.92S

$$




USA.gov is the U.S. government's official web portal to all federal, state and local government web resources and services.